CARTOSAT-2B

Last updated on Mon Dec 15 2025 00:02:37 GMT+0000 (Coordinated Universal Time)

1 36795U 10035A 25348.33428088 .00001205 00000+0 17082-3 0 9995 2 36795 97.7855 37.3130 0013045 71.7948 288.4682 14.78728547832531
UTC large
Height (km)
Speed (km/s)
/
Latitude / Longitude
Inclination (degrees)
Orbital Period (minutes)
Azimuth
Elevation
Range (km)
Doppler Factor

Next 0 passes for location: London (51.5072 / 0.1276)

Sorry there are no passes over London.